| time (UTC) | temp C | wind direction | speed KPH | gust KPH | rain 1hr cm | rain 24hr cm | rain mn cm | humidity % | barometer mb |
| 20260507220620 | 11 | 213 | 4.8 | 4.8 | 0.00 | 0.08 | 0.08 | 93 | 1009.6 |
| 20260507220118 | 11 | 274 | 0.0 | 0.0 | 0.00 | 0.08 | 0.08 | 93 | 1009.5 |
| 20260507215614 | 11 | 232 | 1.6 | 3.2 | 0.00 | 0.08 | 0.08 | 94 | 1009.7 |
| 20260507215112 | 11 | 284 | 3.2 | 4.8 | 0.00 | 0.08 | 0.08 | 94 | 1009.6 |
| 20260507214609 | 11 | 252 | 0.0 | 0.0 | 0.00 | 0.08 | 0.08 | 94 | 1009.6 |
| 20260507214105 | 11 | 155 | 1.6 | 1.6 | 0.00 | 0.08 | 0.08 | 93 | 1009.6 |
| 20260507213601 | 12 | 136 | 3.2 | 4.8 | 0.00 | 0.08 | 0.08 | 93 | 1009.5 |
| 20260507213059 | 12 | 183 | 3.2 | 3.2 | 0.00 | 0.08 | 0.08 | 93 | 1009.6 |
| 20260507212554 | 12 | 233 | 1.6 | 1.6 | 0.00 | 0.08 | 0.08 | 91 | 1009.6 |
| 20260507212051 | 12 | 252 | 1.6 | 3.2 | 0.00 | 0.08 | 0.08 | 91 | 1009.6 |
| 20260507211548 | 12 | 240 | 3.2 | 3.2 | 0.00 | 0.08 | 0.08 | 91 | 1009.5 |
| 20260507211044 | 12 | 285 | 1.6 | 3.2 | 0.00 | 0.08 | 0.08 | 90 | 1009.7 |
| 20260507210542 | 12 | 233 | 3.2 | 3.2 | 0.00 | 0.08 | 0.08 | 90 | 1009.3 |
| 20260507210038 | 12 | 224 | 1.6 | 3.2 | 0.00 | 0.08 | 0.08 | 88 | 1009.5 |
| 20260507205535 | 12 | 195 | 0.0 | 1.6 | 0.00 | 0.08 | 0.08 | 88 | 1009.5 |
| 20260507205031 | 12 | 240 | 3.2 | 4.8 | 0.00 | 0.08 | 0.08 | 89 | 1009.6 |
| 20260507204527 | 12 | 273 | 0.0 | 0.0 | 0.00 | 0.08 | 0.08 | 89 | 1009.6 |
| 20260507204025 | 12 | 144 | 4.8 | 4.8 | 0.00 | 0.08 | 0.08 | 88 | 1009.5 |
| 20260507203523 | 12 | 205 | 4.8 | 8.0 | 0.00 | 0.08 | 0.08 | 89 | 1009.6 |
| 20260507203020 | 12 | 268 | 3.2 | 3.2 | 0.00 | 0.08 | 0.08 | 89 | 1009.5 |
| 20260507202516 | 12 | 234 | 4.8 | 4.8 | 0.00 | 0.08 | 0.08 | 89 | 1009.8 |
| 20260507202012 | 12 | 287 | 3.2 | 4.8 | 0.00 | 0.08 | 0.08 | 90 | 1009.6 |
| 20260507201508 | 12 | 238 | 0.0 | 0.0 | 0.00 | 0.08 | 0.08 | 90 | 1009.7 |
| 20260507201004 | 12 | 244 | 3.2 | 3.2 | 0.00 | 0.08 | 0.08 | 90 | 1009.5 |
| 20260507200500 | 12 | 108 | 3.2 | 3.2 | 0.00 | 0.08 | 0.08 | 91 | 1009.6 |
| 20260507195955 | 12 | 243 | 3.2 | 3.2 | 0.00 | 0.08 | 0.08 | 91 | 1009.7 |
| 20260507195453 | 12 | 152 | 1.6 | 3.2 | 0.00 | 0.08 | 0.08 | 91 | 1009.8 |
| 20260507194951 | 12 | 233 | 3.2 | 4.8 | 0.00 | 0.08 | 0.08 | 94 | 1010.2 |
| 20260507194447 | 12 | 227 | 1.6 | 3.2 | 0.00 | 0.08 | 0.08 | 93 | 1010.2 |
| 20260507193943 | 12 | 235 | 3.2 | 3.2 | 0.00 | 0.08 | 0.08 | 93 | 1010.1 |
| 20260507193440 | 12 | 254 | 1.6 | 1.6 | 0.00 | 0.08 | 0.08 | 95 | 1010.3 |
| 20260507192937 | 12 | 215 | 3.2 | 3.2 | 0.00 | 0.08 | 0.08 | 95 | 1010.3 |
| 20260507192433 | 12 | 231 | 1.6 | 1.6 | 0.00 | 0.08 | 0.08 | 94 | 1010.3 |
| 20260507191930 | 12 | 238 | 4.8 | 4.8 | 0.00 | 0.08 | 0.08 | 94 | 1010.3 |
| 20260507191426 | 12 | 211 | 3.2 | 3.2 | 0.00 | 0.08 | 0.08 | 95 | 1010.1 |
| 20260507190922 | 12 | 251 | 3.2 | 4.8 | 0.00 | 0.08 | 0.08 | 94 | 1010.1 |
| 20260507190421 | 12 | 235 | 3.2 | 3.2 | 0.00 | 0.08 | 0.08 | 94 | 1010.3 |
| 20260507185920 | 12 | 252 | 0.0 | 1.6 | 0.00 | 0.08 | 0.08 | 93 | 1010.6 |
| 20260507185416 | 13 | 227 | 3.2 | 3.2 | 0.00 | 0.08 | 0.08 | 91 | 1010.2 |
| 20260507184913 | 13 | 305 | 3.2 | 4.8 | 0.00 | 0.08 | 0.08 | 90 | 1010.4 |
| 20260507184411 | 13 | 267 | 0.0 | 0.0 | 0.00 | 0.08 | 0.08 | 88 | 1010.2 |
| 20260507183908 | 14 | 354 | 0.0 | 1.6 | 0.00 | 0.08 | 0.08 | 89 | 1010.6 |
| 20260507183405 | 14 | 314 | 0.0 | 1.6 | 0.00 | 0.08 | 0.08 | 88 | 1010.5 |
| 20260507182903 | 13 | 269 | 0.0 | 1.6 | 0.00 | 0.08 | 0.08 | 86 | 1010.6 |
| 20260507182357 | 14 | 277 | 0.0 | 1.6 | 0.00 | 0.08 | 0.08 | 88 | 1010.6 |
| 20260507181855 | 14 | 262 | 1.6 | 3.2 | 0.00 | 0.08 | 0.08 | 87 | 1010.5 |
| 20260507181350 | 13 | 333 | 1.6 | 1.6 | 0.00 | 0.08 | 0.08 | 91 | 1010.5 |
| 20260507180847 | 13 | 272 | 0.0 | 0.0 | 0.00 | 0.08 | 0.08 | 92 | 1010.3 |
| 20260507180344 | 13 | 343 | 0.0 | 0.0 | 0.00 | 0.08 | 0.08 | 92 | 1010.5 |
| 20260507175840 | 12 | 273 | 0.0 | 0.0 | 0.00 | 0.08 | 0.08 | 93 | 1010.7 |
| 20260507175337 | 12 | 288 | 0.0 | 1.6 | 0.00 | 0.08 | 0.08 | 93 | 1010.5 |
| 20260507174835 | 12 | 6 | 1.6 | 3.2 | 0.00 | 0.08 | 0.08 | 94 | 1010.7 |
| 20260507174332 | 12 | 286 | 0.0 | 0.0 | 0.00 | 0.08 | 0.08 | 95 | 1010.8 |
| 20260507173829 | 12 | 274 | 0.0 | 0.0 | 0.00 | 0.08 | 0.08 | 96 | 1010.9 |
| 20260507173326 | 12 | 288 | 0.0 | 0.0 | 0.00 | 0.08 | 0.08 | 96 | 1010.9 |
| 20260507172822 | 12 | 10 | 3.2 | 4.8 | 0.00 | 0.08 | 0.08 | 96 | 1010.7 |
| 20260507172319 | 12 | 8 | 4.8 | 4.8 | 0.00 | 0.08 | 0.08 | 96 | 1010.7 |
| 20260507171815 | 12 | 22 | 4.8 | 4.8 | 0.00 | 0.08 | 0.08 | 96 | 1010.9 |
| 20260507171312 | 12 | 23 | 3.2 | 4.8 | 0.00 | 0.08 | 0.08 | 95 | 1010.8 |
| 20260507170809 | 11 | 42 | 4.8 | 4.8 | 0.00 | 0.08 | 0.08 | 94 | 1011.1 |
| 20260507170306 | 12 | 39 | 4.8 | 4.8 | 0.00 | 0.08 | 0.08 | 94 | 1011.4 |
| 20260507165801 | 12 | 47 | 4.8 | 4.8 | 0.00 | 0.08 | 0.08 | 94 | 1011.3 |
| 20260507165258 | 12 | 21 | 4.8 | 4.8 | 0.00 | 0.08 | 0.08 | 94 | 1011.2 |
| 20260507164754 | 12 | 329 | 1.6 | 1.6 | 0.00 | 0.08 | 0.08 | 94 | 1011.2 |
| 20260507164251 | 12 | 38 | 8.0 | 9.7 | 0.00 | 0.08 | 0.08 | 94 | 1011.4 |
| 20260507163748 | 12 | 63 | 1.6 | 3.2 | 0.00 | 0.08 | 0.08 | 94 | 1011.2 |
| 20260507163246 | 12 | 350 | 4.8 | 4.8 | 0.00 | 0.08 | 0.08 | 95 | 1011.5 |
| 20260507162742 | 12 | 55 | 1.6 | 3.2 | 0.00 | 0.08 | 0.08 | 95 | 1011.3 |
| 20260507162238 | 12 | 35 | 6.4 | 9.7 | 0.00 | 0.08 | 0.08 | 96 | 1011.5 |
| 20260507161735 | 12 | 12 | 8.0 | 9.7 | 0.00 | 0.08 | 0.08 | 97 | 1011.8 |
| 20260507161231 | 12 | 356 | 0.0 | 0.0 | 0.00 | 0.08 | 0.08 | 97 | 1011.8 |
| 20260507160727 | 12 | 50 | 1.6 | 1.6 | 0.00 | 0.08 | 0.08 | 98 | 1011.8 |
| 20260507160224 | 11 | 33 | 0.0 | 0.0 | 0.00 | 0.08 | 0.08 | 98 | 1011.4 |
| 20260507155720 | 11 | 333 | 3.2 | 3.2 | 0.00 | 0.08 | 0.08 | 98 | 1011.8 |
| 20260507155216 | 11 | 23 | 3.2 | 3.2 | 0.00 | 0.08 | 0.08 | 98 | 1011.7 |
| 20260507154713 | 11 | 354 | 3.2 | 3.2 | 0.00 | 0.08 | 0.08 | 99 | 1011.8 |
| 20260507154210 | 11 | 49 | 6.4 | 8.0 | 0.00 | 0.08 | 0.08 | 99 | 1011.7 |
| 20260507153707 | 11 | 59 | 4.8 | 4.8 | 0.00 | 0.08 | 0.08 | 99 | 1012.0 |
| 20260507153203 | 11 | 52 | 3.2 | 3.2 | 0.18 | 0.08 | 0.08 | 99 | 1012.0 |
| 20260507152700 | 11 | 316 | 3.2 | 4.8 | 0.18 | 0.08 | 0.08 | 99 | 1012.1 |
| 20260507152156 | 11 | 22 | 4.8 | 9.7 | 0.00 | 0.05 | 0.05 | 98 | 1011.7 |
| 20260507151652 | 11 | 11 | 4.8 | 4.8 | 0.00 | 0.05 | 0.05 | 98 | 1012.2 |
| 20260507151149 | 11 | 46 | 3.2 | 4.8 | 0.00 | 0.05 | 0.05 | 98 | 1012.3 |
| 20260507150646 | 11 | 49 | 3.2 | 4.8 | 0.00 | 0.05 | 0.05 | 99 | 1012.1 |
| 20260507150143 | 11 | 38 | 1.6 | 1.6 | 0.00 | 0.05 | 0.05 | 99 | 1011.9 |
| 20260507145638 | 11 | 326 | 0.0 | 0.0 | 0.00 | 0.05 | 0.05 | 99 | 1011.7 |
| 20260507145136 | 11 | 32 | 0.0 | 0.0 | 0.00 | 0.05 | 0.05 | 99 | 1011.9 |
| 20260507144632 | 11 | 7 | 1.6 | 1.6 | 0.00 | 0.05 | 0.05 | 98 | 1011.9 |
| 20260507144130 | 11 | 34 | 1.6 | 3.2 | 0.00 | 0.05 | 0.05 | 98 | 1011.9 |
| 20260507143626 | 11 | 34 | 6.4 | 8.0 | 0.00 | 0.05 | 0.05 | 98 | 1011.9 |
| 20260507143124 | 11 | 47 | 0.0 | 0.0 | 0.00 | 0.05 | 0.05 | 99 | 1011.9 |
| 20260507142619 | 11 | 36 | 4.8 | 4.8 | 0.00 | 0.05 | 0.05 | 99 | 1011.8 |
| 20260507142116 | 11 | 9 | 3.2 | 3.2 | 0.00 | 0.05 | 0.05 | 98 | 1012.1 |
| 20260507141612 | 11 | 35 | 3.2 | 4.8 | 0.13 | 0.05 | 0.05 | 98 | 1012.2 |
| 20260507141109 | 11 | 46 | 1.6 | 1.6 | 0.13 | 0.05 | 0.05 | 97 | 1012.5 |
| 20260507140606 | 11 | 30 | 3.2 | 3.2 | 0.00 | 0.03 | 0.03 | 97 | 1012.1 |
| 20260507140103 | 11 | 25 | 3.2 | 4.8 | 0.00 | 0.03 | 0.03 | 97 | 1012.1 |
| 20260507135600 | 11 | 36 | 3.2 | 3.2 | 0.00 | 0.03 | 0.03 | 97 | 1012.2 |
| 20260507135057 | 11 | 58 | 4.8 | 8.0 | 0.00 | 0.03 | 0.03 | 96 | 1012.3 |
| 20260507134554 | 12 | 69 | 0.0 | 0.0 | 0.00 | 0.03 | 0.03 | 97 | 1012.2 |
| 20260507134050 | 12 | 26 | 8.0 | 9.7 | 0.00 | 0.03 | 0.03 | 95 | 1012.2 |
| 20260507133546 | 12 | 37 | 4.8 | 8.0 | 0.00 | 0.03 | 0.03 | 95 | 1012.3 |
| 20260507133044 | 12 | 331 | 4.8 | 4.8 | 0.00 | 0.03 | 0.03 | 95 | 1012.2 |
| 20260507132540 | 12 | 65 | 4.8 | 4.8 | 0.00 | 0.03 | 0.03 | 95 | 1012.3 |
| 20260507132037 | 12 | 41 | 4.8 | 4.8 | 0.00 | 0.03 | 0.03 | 96 | 1012.0 |
| 20260507131534 | 12 | 45 | 4.8 | 4.8 | 0.00 | 0.03 | 0.03 | 95 | 1012.3 |
| 20260507131031 | 12 | 56 | 1.6 | 3.2 | 0.00 | 0.03 | 0.03 | 97 | 1011.9 |
| 20260507130528 | 12 | 48 | 4.8 | 4.8 | 0.00 | 0.03 | 0.03 | 97 | 1012.1 |
| 20260507130026 | 12 | 45 | 3.2 | 4.8 | 0.00 | 0.03 | 0.03 | 97 | 1012.0 |
| 20260507125524 | 12 | 48 | 4.8 | 4.8 | 0.00 | 0.03 | 0.03 | 97 | 1012.2 |
| 20260507125021 | 12 | 283 | 0.0 | 0.0 | 0.00 | 0.03 | 0.03 | 98 | 1011.9 |
| 20260507124517 | 12 | 57 | 1.6 | 3.2 | 0.00 | 0.03 | 0.03 | 98 | 1012.1 |
| 20260507124016 | 12 | 47 | 4.8 | 4.8 | 0.00 | 0.03 | 0.03 | 98 | 1012.1 |
| 20260507123513 | 12 | 3 | 3.2 | 3.2 | 0.00 | 0.03 | 0.03 | 99 | 1011.8 |
| 20260507123010 | 12 | 28 | 4.8 | 8.0 | 0.00 | 0.03 | 0.03 | 99 | 1012.0 |
| 20260507122505 | 12 | 43 | 4.8 | 8.0 | 0.00 | 0.03 | 0.03 | 99 | 1011.9 |
| 20260507122001 | 12 | 55 | 4.8 | 4.8 | 0.00 | 0.03 | 0.03 | 99 | 1012.0 |
| 20260507121456 | 12 | 43 | 3.2 | 4.8 | 0.00 | 0.03 | 0.03 | 99 | 1012.1 |
| 20260507120953 | 12 | 56 | 6.4 | 8.0 | 0.00 | 0.03 | 0.03 | 99 | 1012.0 |
| 20260507120449 | 12 | 62 | 3.2 | 3.2 | 0.00 | 0.03 | 0.03 | 99 | 1012.0 |
| 20260507115946 | 12 | 56 | 3.2 | 3.2 | 0.00 | 0.03 | 0.03 | 99 | 1011.7 |
| 20260507115442 | 12 | 53 | 1.6 | 3.2 | 0.00 | 0.03 | 0.03 | 99 | 1011.6 |
| 20260507114938 | 12 | 35 | 4.8 | 4.8 | 0.00 | 0.03 | 0.03 | 99 | 1011.9 |
| 20260507114434 | 12 | 43 | 8.0 | 9.7 | 0.00 | 0.03 | 0.03 | 99 | 1011.7 |
| 20260507113932 | 12 | 53 | 6.4 | 8.0 | 0.00 | 0.03 | 0.03 | 99 | 1011.6 |
| 20260507113429 | 12 | 352 | 4.8 | 4.8 | 0.00 | 0.03 | 0.03 | 99 | 1011.8 |
| 20260507112926 | 12 | 343 | 4.8 | 4.8 | 0.00 | 0.03 | 0.03 | 99 | 1011.5 |
| 20260507112424 | 12 | 48 | 8.0 | 11.3 | 0.00 | 0.03 | 0.03 | 99 | 1011.4 |
| 20260507111921 | 12 | 45 | 11.3 | 12.9 | 0.00 | 0.03 | 0.03 | 99 | 1011.4 |
| 20260507111418 | 12 | 28 | 8.0 | 9.7 | 0.00 | 0.03 | 0.03 | 99 | 1011.3 |
| 20260507110914 | 12 | 21 | 3.2 | 4.8 | 0.00 | 0.03 | 0.03 | 99 | 1011.6 |
| 20260507110410 | 12 | 350 | 4.8 | 8.0 | 0.00 | 0.03 | 0.03 | 99 | 1011.4 |
| 20260507105907 | 12 | 65 | 4.8 | 9.7 | 0.00 | 0.03 | 0.03 | 99 | 1011.2 |
| 20260507105404 | 12 | 12 | 3.2 | 3.2 | 0.00 | 0.03 | 0.03 | 99 | 1010.9 |
| 20260507104901 | 12 | 37 | 4.8 | 4.8 | 0.00 | 0.03 | 0.03 | 99 | 1010.6 |
| 20260507104357 | 12 | 10 | 4.8 | 8.0 | 0.00 | 0.03 | 0.03 | 99 | 1010.6 |
| 20260507103853 | 12 | 332 | 3.2 | 4.8 | 0.00 | 0.03 | 0.03 | 99 | 1010.8 |
| 20260507103350 | 13 | 37 | 4.8 | 8.0 | 0.00 | 0.03 | 0.03 | 99 | 1010.7 |
| 20260507102846 | 13 | 18 | 4.8 | 8.0 | 0.00 | 0.03 | 0.03 | 99 | 1010.7 |
| 20260507102343 | 13 | 41 | 4.8 | 8.0 | 0.00 | 0.03 | 0.03 | 99 | 1010.8 |
| 20260507101839 | 13 | 332 | 1.6 | 3.2 | 0.00 | 0.03 | 0.03 | 99 | 1011.0 |
| 20260507101334 | 13 | 46 | 0.0 | 1.6 | 0.00 | 0.03 | 0.03 | 99 | 1010.9 |
| 20260507100831 | 13 | 48 | 8.0 | 9.7 | 0.00 | 0.03 | 0.03 | 99 | 1010.8 |
| 20260507100329 | 13 | 63 | 3.2 | 4.8 | 0.00 | 0.03 | 0.03 | 98 | 1011.0 |
| 20260507095827 | 13 | 33 | 8.0 | 11.3 | 0.00 | 0.03 | 0.03 | 98 | 1010.5 |
| 20260507095323 | 13 | 338 | 1.6 | 3.2 | 0.00 | 0.03 | 0.03 | 99 | 1010.9 |
| 20260507094821 | 13 | 52 | 4.8 | 8.0 | 0.00 | 0.03 | 0.03 | 99 | 1010.9 |
| 20260507094317 | 13 | 54 | 8.0 | 8.0 | 0.00 | 0.03 | 0.03 | 99 | 1010.7 |
| 20260507093814 | 13 | 12 | 3.2 | 3.2 | 0.00 | 0.03 | 0.03 | 99 | 1010.5 |
| 20260507093312 | 13 | 18 | 4.8 | 9.7 | 0.00 | 0.03 | 0.03 | 99 | 1010.5 |
| 20260507092810 | 13 | 18 | 11.3 | 12.9 | 0.00 | 0.03 | 0.03 | 99 | 1010.3 |
| 20260507092307 | 13 | 45 | 1.6 | 1.6 | 0.00 | 0.03 | 0.03 | 98 | 1010.5 |
| 20260507091803 | 13 | 22 | 3.2 | 3.2 | 0.00 | 0.03 | 0.03 | 98 | 1010.5 |
| 20260507091259 | 13 | 58 | 8.0 | 11.3 | 0.00 | 0.03 | 0.03 | 99 | 1010.6 |
| 20260507090759 | 13 | 43 | 6.4 | 9.7 | 0.00 | 0.03 | 0.03 | 99 | 1010.5 |
| 20260507090256 | 13 | 29 | 4.8 | 8.0 | 0.00 | 0.03 | 0.03 | 99 | 1010.5 |
| 20260507085753 | 14 | 41 | 11.3 | 11.3 | 0.00 | 0.03 | 0.03 | 99 | 1010.6 |
| 20260507085250 | 14 | 29 | 9.7 | 12.9 | 0.00 | 0.03 | 0.03 | 99 | 1010.6 |
| 20260507084748 | 15 | 34 | 3.2 | 8.0 | 0.00 | 0.03 | 0.03 | 99 | 1010.6 |
| 20260507084244 | 15 | 57 | 4.8 | 4.8 | 0.00 | 0.03 | 0.03 | 99 | 1010.1 |
| 20260507083741 | 16 | 46 | 6.4 | 8.0 | 0.00 | 0.03 | 0.03 | 97 | 1010.1 |
| 20260507083238 | 16 | 64 | 0.0 | 1.6 | 0.00 | 0.03 | 0.03 | 93 | 1009.9 |
| 20260507082734 | 16 | 264 | 0.0 | 1.6 | 0.00 | 0.03 | 0.03 | 91 | 1009.9 |
| 20260507082229 | 16 | 274 | 0.0 | 0.0 | 0.00 | 0.03 | 0.03 | 91 | 1010.0 |
| 20260507081727 | 15 | 32 | 3.2 | 3.2 | 0.00 | 0.03 | 0.03 | 97 | 1009.9 |
| 20260507081223 | 15 | 298 | 0.0 | 0.0 | 0.00 | 0.03 | 0.03 | 99 | 1009.7 |
| 20260507080720 | 16 | 307 | 0.0 | 0.0 | 0.00 | 0.03 | 0.03 | 99 | 1009.5 |
| 20260507080216 | 16 | 260 | 1.6 | 3.2 | 0.00 | 0.03 | 0.03 | 99 | 1009.8 |
| 20260507075711 | 16 | 260 | 0.0 | 0.0 | 0.00 | 0.03 | 0.03 | 99 | 1009.5 |
| 20260507075208 | 16 | 169 | 1.6 | 1.6 | 0.00 | 0.03 | 0.03 | 99 | 1009.6 |
| 20260507074704 | 16 | 245 | 1.6 | 1.6 | 0.00 | 0.03 | 0.03 | 99 | 1009.7 |
| 20260507074203 | 16 | 261 | 0.0 | 0.0 | 0.00 | 0.03 | 0.03 | 99 | 1009.6 |
| 20260507073659 | 16 | 32 | 1.6 | 1.6 | 0.00 | 0.03 | 0.03 | 99 | 1009.5 |
| 20260507073155 | 16 | 138 | 1.6 | 1.6 | 0.00 | 0.03 | 0.03 | 99 | 1009.8 |
| 20260507072653 | 16 | 265 | 0.0 | 0.0 | 0.00 | 0.03 | 0.03 | 99 | 1009.7 |
| 20260507072150 | 16 | 11 | 1.6 | 1.6 | 0.00 | 0.03 | 0.03 | 99 | 1009.5 |
| 20260507071648 | 16 | 271 | 0.0 | 0.0 | 0.00 | 0.03 | 0.03 | 99 | 1009.3 |
| 20260507071144 | 16 | 36 | 0.0 | 1.6 | 0.00 | 0.03 | 0.03 | 99 | 1008.9 |
| 20260507070641 | 16 | 289 | 1.6 | 1.6 | 0.00 | 0.03 | 0.03 | 99 | 1009.3 |
| 20260507070138 | 16 | 301 | 0.0 | 0.0 | 0.00 | 0.03 | 0.03 | 99 | 1008.9 |
| 20260507065634 | 16 | 142 | 1.6 | 1.6 | 0.00 | 0.03 | 0.03 | 99 | 1009.1 |
| 20260507065131 | 16 | 146 | 3.2 | 3.2 | 0.00 | 0.03 | 0.03 | 99 | 1008.8 |
| 20260507064629 | 16 | 274 | 0.0 | 0.0 | 0.00 | 0.03 | 0.03 | 99 | 1008.9 |
| 20260507064127 | 17 | 94 | 0.0 | 1.6 | 0.00 | 0.03 | 0.03 | 99 | 1009.2 |
| 20260507063624 | 17 | 10 | 1.6 | 1.6 | 0.00 | 0.03 | 0.03 | 97 | 1008.8 |
| 20260507063121 | 17 | 261 | 0.0 | 0.0 | 0.00 | 0.03 | 0.03 | 94 | 1009.5 |
| 20260507062618 | 17 | 229 | 1.6 | 1.6 | 0.00 | 0.03 | 0.03 | 97 | 1009.5 |
| 20260507062116 | 16 | 196 | 0.0 | 1.6 | 0.00 | 0.03 | 0.03 | 99 | 1009.7 |
| 20260507061613 | 16 | 326 | 4.8 | 4.8 | 0.00 | 0.03 | 0.03 | 99 | 1009.5 |
| 20260507061111 | 16 | 282 | 0.0 | 0.0 | 0.00 | 0.03 | 0.03 | 99 | 1009.8 |
| 20260507060609 | 16 | 221 | 1.6 | 1.6 | 0.00 | 0.03 | 0.03 | 99 | 1009.6 |
| 20260507060105 | 16 | 269 | 0.0 | 0.0 | 0.00 | 0.03 | 0.03 | 99 | 1009.8 |
| 20260507055600 | 16 | 233 | 1.6 | 1.6 | 0.00 | 0.03 | 0.03 | 99 | 1009.7 |
| 20260507055057 | 16 | 284 | 0.0 | 0.0 | 0.00 | 0.03 | 0.03 | 99 | 1009.7 |
| 20260507054553 | 16 | 251 | 0.0 | 0.0 | 0.00 | 0.03 | 0.03 | 99 | 1009.7 |
| 20260507054050 | 16 | 281 | 0.0 | 0.0 | 0.00 | 0.03 | 0.03 | 99 | 1009.7 |
| 20260507053548 | 16 | 273 | 0.0 | 0.0 | 0.00 | 0.03 | 0.03 | 99 | 1009.6 |
| 20260507053046 | 16 | 272 | 1.6 | 1.6 | 0.00 | 0.03 | 0.03 | 99 | 1009.4 |
| 20260507052544 | 16 | 256 | 0.0 | 0.0 | 0.00 | 0.03 | 0.03 | 99 | 1008.9 |
| 20260507052040 | 16 | 264 | 0.0 | 0.0 | 0.00 | 0.03 | 0.03 | 99 | 1009.3 |
| 20260507051538 | 16 | 270 | 0.0 | 0.0 | 0.00 | 0.03 | 0.03 | 99 | 1008.7 |
| 20260507051034 | 16 | 27 | 0.0 | 1.6 | 0.00 | 0.03 | 0.03 | 99 | 1008.4 |
| 20260507050531 | 16 | 268 | 0.0 | 0.0 | 0.00 | 0.03 | 0.03 | 99 | 1008.4 |
| 20260507050027 | 17 | 268 | 0.0 | 0.0 | 0.00 | 0.03 | 0.03 | 99 | 1008.5 |
| 20260507045524 | 17 | 199 | 0.0 | 1.6 | 0.00 | 0.03 | 0.03 | 99 | 1008.7 |
| 20260507045021 | 17 | 255 | 0.0 | 0.0 | 0.00 | 0.03 | 0.03 | 99 | 1008.8 |
| 20260507044518 | 17 | 263 | 0.0 | 0.0 | 0.00 | 0.03 | 0.03 | 99 | 1008.6 |
| 20260507044015 | 17 | 59 | 4.8 | 4.8 | 0.00 | 0.03 | 0.03 | 99 | 1008.8 |
| 20260507043511 | 17 | 275 | 0.0 | 0.0 | 0.00 | 0.03 | 0.03 | 99 | 1009.2 |
| 20260507043008 | 17 | 256 | 0.0 | 0.0 | 0.18 | 0.03 | 0.03 | 99 | 1008.9 |
| 20260507042504 | 17 | 41 | 0.0 | 0.0 | 0.18 | 0.03 | 0.03 | 99 | 1009.1 |
| 20260507042000 | 17 | 260 | 0.0 | 0.0 | 0.00 | 0.00 | 0.00 | 99 | 1009.3 |
| 20260507041457 | 17 | 299 | 0.0 | 0.0 | 0.00 | 0.00 | 0.00 | 99 | 1009.4 |
| 20260507040954 | 17 | 237 | 0.0 | 0.0 | 0.00 | 0.00 | 0.00 | 99 | 1009.5 |
| 20260507040449 | 17 | 305 | 0.0 | 0.0 | 0.00 | 0.00 | 0.00 | 99 | 1009.3 |
| 20260507035945 | 17 | 271 | 0.0 | 0.0 | 0.00 | 0.05 | 0.05 | 99 | 1009.1 |
| 20260507035442 | 17 | 20 | 1.6 | 1.6 | 0.00 | 0.05 | 0.05 | 99 | 1008.8 |
| 20260507034939 | 17 | 290 | 0.0 | 0.0 | 0.00 | 0.05 | 0.05 | 99 | 1009.1 |
| 20260507034436 | 17 | 9 | 1.6 | 3.2 | 0.00 | 0.05 | 0.05 | 99 | 1009.1 |
| 20260507033934 | 18 | 347 | 1.6 | 1.6 | 0.00 | 0.05 | 0.05 | 98 | 1009.3 |
| 20260507033432 | 18 | 224 | 1.6 | 1.6 | 0.13 | 0.05 | 0.05 | 97 | 1009.4 |
| 20260507032928 | 18 | 291 | 0.0 | 1.6 | 0.13 | 0.05 | 0.05 | 96 | 1009.5 |
| 20260507032426 | 18 | 204 | 1.6 | 1.6 | 0.00 | 0.03 | 0.03 | 96 | 1009.8 |
| 20260507031921 | 18 | 254 | 0.0 | 0.0 | 0.00 | 0.03 | 0.03 | 95 | 1010.1 |
| 20260507031418 | 18 | 246 | 0.0 | 0.0 | 0.00 | 0.03 | 0.03 | 93 | 1010.1 |
| 20260507030915 | 18 | 240 | 0.0 | 1.6 | 0.00 | 0.03 | 0.03 | 92 | 1009.9 |
| 20260507030412 | 19 | 50 | 3.2 | 4.8 | 0.00 | 0.03 | 0.03 | 91 | 1009.5 |
| 20260507025909 | 19 | 209 | 3.2 | 4.8 | 0.00 | 0.03 | 0.03 | 91 | 1009.5 |
| 20260507025407 | 19 | 242 | 1.6 | 3.2 | 0.00 | 0.03 | 0.03 | 91 | 1009.3 |
| 20260507024904 | 19 | 234 | 6.4 | 9.7 | 0.00 | 0.03 | 0.03 | 90 | 1009.5 |
| 20260507024401 | 19 | 222 | 3.2 | 4.8 | 0.00 | 0.03 | 0.03 | 90 | 1009.7 |
| 20260507023857 | 19 | 309 | 1.6 | 1.6 | 0.00 | 0.03 | 0.03 | 91 | 1009.2 |
| 20260507023354 | 18 | 238 | 4.8 | 4.8 | 0.00 | 0.03 | 0.03 | 92 | 1009.2 |
| 20260507022851 | 18 | 229 | 4.8 | 8.0 | 0.00 | 0.03 | 0.03 | 94 | 1009.4 |
| 20260507022348 | 18 | 173 | 1.6 | 1.6 | 0.00 | 0.03 | 0.03 | 95 | 1009.8 |
| 20260507021844 | 17 | 277 | 0.0 | 0.0 | 0.00 | 0.03 | 0.03 | 96 | 1009.5 |
| 20260507021339 | 17 | 154 | 1.6 | 1.6 | 0.00 | 0.03 | 0.03 | 98 | 1008.9 |
| 20260507020837 | 16 | 238 | 1.6 | 1.6 | 0.00 | 0.03 | 0.03 | 99 | 1009.1 |
| 20260507020333 | 16 | 277 | 0.0 | 0.0 | 0.00 | 0.03 | 0.03 | 99 | 1009.1 |
| 20260507015830 | 16 | 296 | 0.0 | 0.0 | 0.00 | 0.03 | 0.03 | 99 | 1009.1 |
| 20260507015328 | 16 | 280 | 0.0 | 0.0 | 0.00 | 0.03 | 0.03 | 99 | 1008.6 |
| 20260507014820 | 16 | 280 | 0.0 | 0.0 | 0.00 | 0.03 | 0.03 | 99 | 1008.2 |
| 20260507014316 | 16 | 238 | 0.0 | 0.0 | 0.00 | 0.03 | 0.03 | 99 | 1008.9 |
| 20260507013812 | 16 | 259 | 0.0 | 0.0 | 0.00 | 0.03 | 0.03 | 99 | 1009.3 |
| 20260507013310 | 16 | 273 | 0.0 | 0.0 | 0.00 | 0.03 | 0.03 | 99 | 1009.3 |
| 20260507012807 | 16 | 356 | 0.0 | 1.6 | 0.00 | 0.03 | 0.03 | 98 | 1009.2 |
| 20260507012306 | 16 | 315 | 0.0 | 0.0 | 0.00 | 0.03 | 0.03 | 97 | 1009.5 |
| 20260507011800 | 17 | 253 | 0.0 | 0.0 | 0.00 | 0.03 | 0.03 | 97 | 1009.2 |
| 20260507011257 | 17 | 237 | 0.0 | 1.6 | 0.00 | 0.03 | 0.03 | 97 | 1009.3 |
| 20260507010756 | 17 | 269 | 0.0 | 0.0 | 0.00 | 0.03 | 0.03 | 96 | 1009.2 |
| 20260507010252 | 17 | 293 | 0.0 | 1.6 | 0.00 | 0.03 | 0.03 | 94 | 1009.5 |
| 20260507005750 | 18 | 274 | 0.0 | 0.0 | 0.00 | 0.03 | 0.03 | 93 | 1009.5 |
| 20260507005246 | 18 | 302 | 0.0 | 1.6 | 0.00 | 0.03 | 0.03 | 94 | 1009.5 |
| 20260507004743 | 18 | 306 | 0.0 | 0.0 | 0.00 | 0.03 | 0.03 | 93 | 1009.6 |
| 20260507004241 | 18 | 217 | 1.6 | 3.2 | 0.00 | 0.03 | 0.03 | 93 | 1009.5 |
| 20260507003737 | 18 | 228 | 0.0 | 0.0 | 0.00 | 0.03 | 0.03 | 93 | 1009.5 |
| 20260507003232 | 18 | 259 | 0.0 | 0.0 | 0.00 | 0.03 | 0.03 | 92 | 1009.3 |
| 20260507002728 | 18 | 254 | 0.0 | 0.0 | 0.00 | 0.03 | 0.03 | 91 | 1009.3 |
| 20260507002224 | 19 | 278 | 0.0 | 0.0 | 0.00 | 0.03 | 0.03 | 90 | 1009.2 |
| 20260507001721 | 19 | 228 | 1.6 | 1.6 | 0.00 | 0.03 | 0.03 | 89 | 1009.3 |
| 20260507001219 | 19 | 238 | 0.0 | 0.0 | 0.00 | 0.03 | 0.03 | 89 | 1009.2 |
| 20260507000715 | 19 | 303 | 0.0 | 1.6 | 0.00 | 0.03 | 0.03 | 89 | 1009.1 |
| 20260507000212 | 20 | 342 | 1.6 | 1.6 | 0.00 | 0.03 | 0.03 | 88 | 1009.4 |
| 20260506235708 | 20 | 246 | 1.6 | 1.6 | 0.00 | 0.03 | 0.03 | 88 | 1009.6 |
| 20260506235203 | 20 | 267 | 0.0 | 0.0 | 0.00 | 0.03 | 0.03 | 88 | 1009.2 |
| 20260506234700 | 20 | 194 | 1.6 | 3.2 | 0.00 | 0.03 | 0.03 | 87 | 1009.2 |
| 20260506234157 | 20 | 166 | 1.6 | 1.6 | 0.00 | 0.03 | 0.03 | 86 | 1008.9 |
| 20260506233655 | 21 | 216 | 4.8 | 4.8 | 0.00 | 0.03 | 0.03 | 84 | 1008.7 |
| 20260506233151 | 21 | 309 | 3.2 | 3.2 | 0.00 | 0.03 | 0.03 | 85 | 1008.8 |
| 20260506232648 | 21 | 219 | 6.4 | 9.7 | 0.00 | 0.03 | 0.03 | 84 | 1008.7 |
| 20260506232143 | 20 | 245 | 0.0 | 1.6 | 0.00 | 0.03 | 0.03 | 85 | 1009.1 |
| 20260506231640 | 20 | 168 | 3.2 | 3.2 | 0.00 | 0.03 | 0.03 | 86 | 1009.3 |
| 20260506231139 | 20 | 265 | 1.6 | 1.6 | 0.00 | 0.03 | 0.03 | 85 | 1009.4 |
| 20260506230635 | 20 | 166 | 8.0 | 11.3 | 0.00 | 0.03 | 0.03 | 85 | 1009.2 |
| 20260506230132 | 21 | 184 | 4.8 | 4.8 | 0.00 | 0.03 | 0.03 | 84 | 1009.1 |
| 20260506225629 | 21 | 221 | 9.7 | 11.3 | 0.00 | 0.03 | 0.03 | 84 | 1009.1 |
| 20260506225125 | 22 | 207 | 1.6 | 3.2 | 0.00 | 0.03 | 0.03 | 81 | 1009.1 |
| 20260506224622 | 22 | 120 | 1.6 | 1.6 | 0.00 | 0.03 | 0.03 | 79 | 1008.7 |
| 20260506224118 | 22 | 229 | 4.8 | 4.8 | 0.00 | 0.03 | 0.03 | 79 | 1008.8 |
| 20260506223615 | 22 | 303 | 3.2 | 4.8 | 0.00 | 0.03 | 0.03 | 79 | 1008.7 |
| 20260506223111 | 22 | 238 | 4.8 | 9.7 | 0.00 | 0.03 | 0.03 | 79 | 1008.5 |
| 20260506222608 | 22 | 233 | 4.8 | 8.0 | 0.00 | 0.03 | 0.03 | 79 | 1008.6 |
| 20260506222104 | 23 | 45 | 4.8 | 8.0 | 0.00 | 0.03 | 0.03 | 78 | 1008.6 |
| 20260506221602 | 22 | 165 | 3.2 | 3.2 | 0.00 | 0.03 | 0.03 | 80 | 1008.3 |
| 20260506221100 | 21 | 268 | 1.6 | 1.6 | 0.00 | 0.03 | 0.03 | 81 | 1008.4 |